This demonstration page uses our WeatherBlox Daily Observations layout. Learn more.

Left ArrowRight Arrow

Hourly Observations for September 26, 2015

Temp ( °F °C ) Dew Point ( °F °C ) Humidity (%) Winds ( mph kmh ) Pressure ( in mb ) Visibility ( mi km ) Precip ( " mm )
12:52 am 00:52 Mostly Clear 64 18 55 13 73 73 Calm 30.21 1023 10 16 0.00 0.00
1:52 am 01:52 Mostly Clear 64 17.8 55 12.8 73 73 ESE 6 9 30.18 1022 10 16 0.00 0.00
2:52 am 02:52 Mostly Clear 59 15 56 13.3 90 90 WNW 3 6 30.18 1022 10 16 0.00 0.00
3:52 am 03:52 Clear 57 13.9 55 12.8 93 93 NNW 3 6 30.17 1022 10 16 0.00 0.00
4:52 am 04:52 Mostly Clear 55 12.8 53 11.7 93 93 NNW 6 9 30.18 1022 9 14 0.00 0.00
5:52 am 05:52 Mostly Clear 56 13.3 54 12.2 93 93 N 8 13 30.18 1022 9 14 0.00 0.00
6:52 am 06:52 Mostly Clear 55 12.8 54 12.2 96 96 Calm 30.18 1022 8 13 0.00 0.00
7:52 am 07:52 Mostly Sunny 55 12.8 54 12.2 96 96 NNW 6 9 30.20 1023 7 11 0.00 0.00
8:52 am 08:52 Mostly Sunny 60 15.6 56 13.3 86 86 NNW 5 7 30.19 1022 8 13 0.00 0.00
9:52 am 09:52 Mostly Sunny 64 17.8 58 14.4 81 81 Calm 30.19 1022 10 16 0.00 0.00
10:52 am 10:52 Mostly Sunny 69 20.6 59 15 70 70 Calm 30.19 1022 10 16 0.00 0.00
11:52 am 11:52 Mostly Sunny 72 22.2 60 15.6 66 66 ESE 3 6 30.17 1022 10 16 0.00 0.00
12:52 pm 12:52 Mostly Sunny 77 25 61 16.1 58 58 VRB 3 6 30.15 1021 10 16 0.00 0.00
1:52 pm 13:52 Mostly Sunny 79 26.1 58 14.4 49 49 VRB 3 6 30.12 1020 10 16 0.00 0.00
2:52 pm 14:52 Partly Cloudy 80 26.7 55 12.8 42 42 S 12 19 30.09 1019 10 16 0.00 0.00
3:52 pm 15:52 Partly Cloudy 81 27.2 54 12.2 39 39 S 10 17 30.08 1019 10 16 0.00 0.00
4:52 pm 16:52 Mostly Sunny 81 27.2 54 12.2 39 39 S 10 17 30.06 1018 10 16 0.00 0.00
5:52 pm 17:52 Sunny 80 26.7 55 12.8 42 42 SSE 10 17 30.04 1017 10 16 0.00 0.00
6:52 pm 18:52 Sunny 75 23.9 57 13.9 54 54 SE 8 13 30.04 1017 10 16 0.00 0.00
7:52 pm 19:52 Clear 72 22.2 58 14.4 61 61 ESE 6 9 30.04 1017 10 16 0.00 0.00
8:52 pm 20:52 Clear 69 20.6 57 13.9 66 66 SSE 5 7 30.05 1018 10 16 0.00 0.00
9:52 pm 21:52 Clear 69 20.6 56 13.3 63 63 ESE 3 6 30.05 1018 10 16 0.00 0.00
10:52 pm 22:52 Clear 67 19.4 57 13.9 71 71 SE 3 6 30.05 1018 10 16 0.00 0.00
11:52 pm 23:52 Clear 65 18.3 56 13.3 73 73 SE 3 6 30.04 1017 10 16 0.00 0.00

Powered by AerisWeather